Find Ronghe Shiyan Weixing 1

NORAD ID: 49112 Int'l Des: 2021-076 Owner: CAST Country: CN operational
LEOCIRCULARPOLARONEWEB_TYPE

リアルタイム位置

3D地球を読み込み中...

Ronghe Shiyan Weixing 1について

説明を読み込み中...

次回通過

Passes for default location (London). Set your location on the main map for personalized predictions.

高度履歴

Loading altitude history...

軌道要素

1 49112U 21076A 26105.90924801 .00000174 00000-0 27885-3 0 9995
2 49112 86.4157 180.0452 0013867 233.9064 126.0797 13.42858870227528
Epoch: Apr 15, 2026 • Age: 14 hours

現在のステータス

高度 1117.0 km
速度 7.30 km/s
衛星直下点 -77.31°S, 3.02°W
打ち上げ日 Aug 24, 2021
運用期間 4.6 years
タイプ other

技術仕様

分類 Payload
質量 300.00 kg
乾燥質量 300.00 kg
総質量 300.00 kg
長さ 2.50 m
直径 0.80 m
スパン 2.50 m
形状 Box + 2 Pan
製造者 CAST
フェーズステータス In Orbit
所有者/国 CAST/CN

Most Searched